Location: Baumgarten
(49.0970°N, 12.7493°E)
Time: 08:32:56
(UTC+00:00)

USA 215 - Pass Details

Date: 05 July 2020
Orbit: 1102 x 1106 km, 123.0° (Epoch: 31 July)

Event Time Altitude Azimuth Distance (km) Brightness Sun altitude
Rises 22:40:02 0° 60° (ENE) 3,926 6.5 -17.8°
Reaches altitude 10° 22:42:33 10° 57° (ENE) 2,966 5.8 -17.9°
Maximum altitude 22:48:57 59° 340° (NNW) 1,259 3.9 -18.0°
Drops below altitude 10° 22:55:20 10° 263° (W) 2,960 5.5 -18.1°
Sets 22:57:50 0° 259° (W) 3,917 6.1 -18.1°
